Погода в Сандауне

Великобритания     50°39′14″N   1°09′27″W
темп.,
°C
ветер,
м/с
пор.,
м/с
влажн.,
%
обл.,
%
осадки,
мм/ч
давл.,
гПа
погр.,
м
10 мая, пн
пн1001:00+11ююз51187100 0.0 997380
04:00+10ююз8139390 0.0 997541
07:00+10ююз10148869 0.1 998783
10:00+12ююз11148135 0.3 1000950
13:00+12ююз1114775 0.8 10031020
16:00+12юз914714 0.0 1004956
19:00+11юз61181100 0.0 1005629
22:00+9ююз358899 0.0 1006148
11 мая, вт
вт1101:00+9ю238655 0.0 100756
04:00+9ююз11845 0.0 100623
07:00+10вюв358525 0.0 1007187
10:00+11ю577877 0.2 1007604
13:00+12ююв6975100 0.3 1007735
16:00+11ю71277100 0.3 1007835
19:00+11юз912811 0.4 1008839
22:00+10юз9138926 0.0 1009622
12 мая, ср
ср1201:00+10юз9139155 0.0 1009632
04:00+10юз7109333 0.1 1009566
07:00+10юз68918 0.3 1010559
10:00+11юз78838 0.3 1010744
13:00+12юз79722 0.4 1011743
16:00+12юз567215 0.0 1011601
19:00+11юз4676100 0.0 1011437
22:00+9юз238550 0.0 101296
13 мая, чт
чт1301:00+9з4685100 0.2 1011241
04:00+8зсз4693100 2.0 1011350
07:00+7ссз3393100 6.6 1011141
10:00+8ссв3388100 1.8 1011209
13:00+10св227672 1.8 1011650
16:00+11з337499 0.1 1010737
19:00+11з347911 0.2 1010291
22:00+9зсз23866 0.0 101096
14 мая, пт
пт1401:00+8з128529 0.0 101064
04:00+7сз22865 0.0 101066
07:00+7сз22855 0.0 1010111
10:00+11з23706 0.0 1011523
13:00+12зюз447071 0.1 1011573
16:00+12юз657011 0.1 1011470
19:00+11зюз45775 0.3 1012214
22:00+9зюз34885 0.1 101378